Location: Castelbiague
(43.0361°N, 0.9246°E)
Time: 09:27:28
(UTC+00:00)

Iridium 2 - Pass Details

Date: 17 June 2021
Orbit: 502 x 512 km, 85.5° (Epoch: 27 July)

Event Time Altitude Azimuth Distance (km) Brightness Sun altitude
Exits shadow 23:04:50 71° 281° (W) 540 3.7 -22.5°
Drops below altitude 10° 23:08:33 10° 360° (N) 1,727 7.4 -22.6°
Sets 23:10:41 0° 2° (N) 2,615 8.6 -22.7°
